| time (UTC) | temp F | wind direction | speed knots | gust knots | rain 1hr in | rain 24hr in | rain mn in | humidity % | barometer mb |
| 20260506211537 | 58 | 328 | 0.9 | 3.5 | 0.08 | 0.20 | 0.20 | 96 | 1007.6 |
| 20260506210035 | 58 | 250 | 1.7 | 5.2 | 0.07 | 0.17 | 0.17 | 96 | 1007.6 |
| 20260506204536 | 58 | 73 | 0.9 | 5.2 | 0.05 | 0.14 | 0.14 | 96 | 1007.9 |
| 20260506203034 | 58 | 200 | 1.7 | 3.5 | 0.05 | 0.14 | 0.14 | 95 | 1007.9 |
| 20260506201539 | 58 | 148 | 1.7 | 7.0 | 0.04 | 0.12 | 0.12 | 95 | 1007.9 |
| 20260506200030 | 58 | 219 | 1.7 | 5.2 | 0.02 | 0.10 | 0.10 | 95 | 1008.1 |
| 20260506194529 | 58 | 73 | 1.7 | 3.5 | 0.02 | 0.09 | 0.09 | 95 | 1008.4 |
| 20260506193028 | 58 | 229 | 1.7 | 5.2 | 0.03 | 0.09 | 0.09 | 95 | 1008.5 |
| 20260506191528 | 58 | 264 | 0.9 | 5.2 | 0.05 | 0.08 | 0.08 | 94 | 1008.4 |
| 20260506190029 | 58 | 95 | 1.7 | 7.8 | 0.07 | 0.08 | 0.08 | 93 | 1008.8 |
| 20260506184526 | 59 | 101 | 0.9 | 4.3 | 0.07 | 0.07 | 0.07 | 92 | 1008.5 |
| 20260506183024 | 59 | 92 | 0.9 | 4.3 | 0.06 | 0.06 | 0.06 | 91 | 1008.6 |
| 20260506181522 | 60 | 81 | 0.9 | 3.5 | 0.03 | 0.03 | 0.03 | 89 | 1009.0 |
| 20260506180024 | 61 | 190 | 1.7 | 5.2 | 0.01 | 0.01 | 0.01 | 87 | 1009.2 |
| 20260506174524 | 63 | 238 | 0.9 | 4.3 | 0.00 | 0.00 | 0.00 | 84 | 1009.5 |
| 20260506173018 | 64 | 32 | 1.7 | 7.8 | 0.00 | 0.00 | 0.00 | 80 | 1009.6 |
| 20260506171533 | 66 | 240 | 1.7 | 10.4 | 0.00 | 0.00 | 0.00 | 75 | 1009.7 |
| 20260506170019 | 67 | 200 | 1.7 | 7.8 | 0.00 | 0.00 | 0.00 | 70 | 1009.6 |
| 20260506164522 | 68 | 337 | 2.6 | 8.7 | 0.00 | 0.00 | 0.00 | 70 | 1009.4 |
| 20260506163016 | 68 | 94 | 2.6 | 10.4 | 0.00 | 0.00 | 0.00 | 69 | 1009.5 |
| 20260506161516 | 68 | 159 | 2.6 | 13.9 | 0.00 | 0.00 | 0.00 | 69 | 1009.6 |
| 20260506160016 | 69 | 59 | 1.7 | 5.2 | 0.00 | 0.00 | 0.00 | 68 | 1009.9 |
| 20260506154514 | 69 | 225 | 1.7 | 6.1 | 0.00 | 0.00 | 0.00 | 68 | 1009.9 |
| 20260506153013 | 69 | 130 | 1.7 | 8.7 | 0.00 | 0.00 | 0.00 | 69 | 1010.0 |
| 20260506151511 | 69 | 115 | 2.6 | 7.8 | 0.00 | 0.00 | 0.00 | 67 | 1010.2 |
| 20260506150009 | 69 | 192 | 1.7 | 4.3 | 0.00 | 0.00 | 0.00 | 68 | 1010.2 |
| 20260506144508 | 68 | 160 | 0.9 | 8.7 | 0.00 | 0.00 | 0.00 | 69 | 1010.3 |
| 20260506143003 | 67 | 304 | 3.5 | 11.3 | 0.00 | 0.00 | 0.00 | 73 | 1010.4 |
| 20260506141501 | 66 | 109 | 0.9 | 7.8 | 0.00 | 0.00 | 0.00 | 73 | 1010.6 |
| 20260506140104 | 66 | 140 | 2.6 | 7.0 | 0.00 | 0.00 | 0.00 | 73 | 1010.4 |
| 20260506134559 | 66 | 328 | 3.5 | 8.7 | 0.00 | 0.00 | 0.00 | 74 | 1010.1 |
| 20260506133056 | 65 | 188 | 1.7 | 7.8 | 0.00 | 0.00 | 0.00 | 77 | 1010.2 |
| 20260506131606 | 64 | 44 | 2.6 | 6.1 | 0.00 | 0.00 | 0.00 | 78 | 1010.6 |
| 20260506130054 | 63 | 11 | 1.7 | 7.8 | 0.00 | 0.00 | 0.00 | 80 | 1010.9 |
| 20260506124549 | 63 | 104 | 1.7 | 7.8 | 0.00 | 0.00 | 0.00 | 82 | 1011.0 |
| 20260506123048 | 61 | 176 | 1.7 | 5.2 | 0.00 | 0.00 | 0.00 | 83 | 1011.1 |
| 20260506121540 | 61 | 302 | 0.0 | 5.2 | 0.00 | 0.00 | 0.00 | 86 | 1011.1 |
| 20260506120040 | 60 | 148 | 1.7 | 4.3 | 0.00 | 0.00 | 0.00 | 87 | 1011.3 |
| 20260506114543 | 59 | 303 | 1.7 | 7.8 | 0.00 | 0.00 | 0.00 | 89 | 1011.1 |
| 20260506113038 | 58 | 38 | 0.9 | 4.3 | 0.00 | 0.00 | 0.00 | 90 | 1011.5 |
| 20260506111538 | 57 | 266 | 1.7 | 6.1 | 0.00 | 0.00 | 0.00 | 90 | 1011.7 |
| 20260506110037 | 57 | 110 | 1.7 | 5.2 | 0.00 | 0.00 | 0.00 | 91 | 1011.7 |
| 20260506104537 | 56 | 84 | 0.9 | 6.1 | 0.00 | 0.00 | 0.00 | 92 | 1011.5 |
| 20260506103035 | 56 | 67 | 0.0 | 2.6 | 0.00 | 0.00 | 0.00 | 91 | 1011.5 |
| 20260506101535 | 56 | 78 | 0.0 | 5.2 | 0.00 | 0.00 | 0.00 | 91 | 1011.3 |
| 20260506100034 | 56 | 324 | 0.9 | 4.3 | 0.00 | 0.00 | 0.00 | 91 | 1011.4 |
| 20260506094533 | 56 | 73 | 0.0 | 5.2 | 0.00 | 0.00 | 0.00 | 91 | 1011.3 |
| 20260506093033 | 56 | 242 | 0.9 | 3.5 | 0.00 | 0.00 | 0.00 | 91 | 1011.3 |
| 20260506091533 | 56 | 93 | 1.7 | 6.1 | 0.00 | 0.00 | 0.00 | 90 | 1011.3 |
| 20260506090030 | 56 | 121 | 0.9 | 2.6 | 0.00 | 0.00 | 0.00 | 89 | 1011.4 |
| 20260506084534 | 57 | 43 | 0.9 | 3.5 | 0.00 | 0.00 | 0.00 | 89 | 1011.5 |
| 20260506083029 | 56 | 243 | 0.0 | 2.6 | 0.00 | 0.00 | 0.00 | 89 | 1011.4 |
| 20260506081528 | 57 | 111 | 0.9 | 4.3 | 0.00 | 0.00 | 0.00 | 88 | 1011.6 |
| 20260506073024 | 57 | 141 | 0.0 | 4.3 | 0.00 | 0.00 | 0.00 | 86 | 1011.8 |
| 20260506071523 | 58 | 159 | 0.0 | 3.5 | 0.00 | 0.00 | 0.00 | 85 | 1011.7 |
| 20260506061518 | 59 | 20 | 1.7 | 5.2 | 0.00 | 0.00 | 0.00 | 84 | 1011.5 |
| 20260506044506 | 61 | 76 | 0.9 | 7.0 | 0.00 | 0.00 | 0.00 | 78 | 1012.2 |
| 20260506043008 | 61 | 141 | 2.6 | 7.8 | 0.00 | 0.00 | 0.00 | 77 | 1012.2 |
| 20260506041506 | 61 | 108 | 0.9 | 6.1 | 0.00 | 0.00 | 0.00 | 77 | 1012.2 |
| 20260506040002 | 61 | 345 | 0.0 | 3.5 | 0.00 | 0.00 | 0.00 | 75 | 1012.2 |
| 20260506034503 | 61 | 109 | 0.9 | 5.2 | 0.00 | 0.00 | 0.00 | 75 | 1012.3 |
| 20260506033002 | 61 | 290 | 0.9 | 7.0 | 0.00 | 0.00 | 0.00 | 74 | 1012.3 |
| 20260506031506 | 61 | 185 | 0.9 | 5.2 | 0.00 | 0.00 | 0.00 | 75 | 1012.1 |
| 20260506030002 | 61 | 164 | 0.0 | 6.1 | 0.00 | 0.00 | 0.00 | 75 | 1012.1 |
| 20260506024504 | 60 | 17 | 0.9 | 6.1 | 0.00 | 0.00 | 0.00 | 75 | 1012.1 |
| 20260506023101 | 60 | 5 | 0.9 | 5.2 | 0.00 | 0.00 | 0.00 | 75 | 1012.1 |
| 20260506021608 | 60 | 148 | 0.9 | 3.5 | 0.00 | 0.00 | 0.00 | 75 | 1012.2 |
| 20260506020059 | 60 | 64 | 0.9 | 2.6 | 0.00 | 0.00 | 0.00 | 74 | 1012.2 |
| 20260506014612 | 61 | 187 | 1.7 | 5.2 | 0.00 | 0.00 | 0.00 | 73 | 1012.3 |
| 20260506013102 | 61 | 151 | 1.7 | 8.7 | 0.00 | 0.00 | 0.00 | 72 | 1011.9 |
| 20260506011558 | 61 | 101 | 1.7 | 3.5 | 0.00 | 0.00 | 0.00 | 71 | 1011.8 |
| 20260506010106 | 62 | 137 | 0.9 | 2.6 | 0.00 | 0.00 | 0.00 | 70 | 1011.7 |
| 20260506004557 | 62 | 132 | 1.7 | 6.1 | 0.00 | 0.00 | 0.00 | 69 | 1011.4 |
| 20260506003056 | 63 | 167 | 0.9 | 5.2 | 0.00 | 0.00 | 0.00 | 69 | 1011.3 |
| 20260506001600 | 64 | 294 | 1.7 | 6.1 | 0.00 | 0.00 | 0.00 | 67 | 1011.0 |
| 20260506000059 | 64 | 139 | 1.7 | 5.2 | 0.00 | 0.00 | 0.00 | 67 | 1010.7 |
| 20260505234554 | 65 | 303 | 0.9 | 4.3 | 0.00 | 0.00 | 0.00 | 65 | 1010.5 |
| 20260505233107 | 66 | 119 | 1.7 | 5.2 | 0.00 | 0.00 | 0.00 | 64 | 1010.2 |
| 20260505231554 | 67 | 304 | 1.7 | 7.8 | 0.00 | 0.00 | 0.00 | 63 | 1010.0 |
| 20260505230054 | 68 | 128 | 0.9 | 10.4 | 0.00 | 0.00 | 0.00 | 61 | 1009.8 |
| 20260505224553 | 69 | 169 | 2.6 | 5.2 | 0.00 | 0.00 | 0.00 | 59 | 1009.5 |
| 20260505223052 | 70 | 123 | 1.7 | 7.0 | 0.00 | 0.00 | 0.00 | 57 | 1009.3 |
| 20260505221600 | 71 | 72 | 3.5 | 13.9 | 0.00 | 0.00 | 0.00 | 55 | 1009.1 |
| 20260505220053 | 72 | 205 | 1.7 | 7.0 | 0.00 | 0.00 | 0.00 | 55 | 1009.3 |
| 20260505214550 | 73 | 23 | 2.6 | 6.1 | 0.00 | 0.00 | 0.00 | 53 | 1009.3 |
| 20260505213051 | 73 | 340 | 2.6 | 7.8 | 0.00 | 0.00 | 0.00 | 54 | 1009.3 |